Theta_e
327 329 329 330 328 325 323 324 325 327 328 328 329 330 331 331 332 333 334 335 334 332 332 332 332 330 330 331 332 335 338 340 342 344 343 342 342 344 347 348 347 345 347 347 341 335 335 335 335 335 335 335 335 335 334 333 332 332 332 332 332 333 334 335 335 336 336 336 337 338 338 339 339 340
329 330 329 327 325 324 324 324 325 326 326 327 328 329 330 332 332 332 333 335 335 334 333 332 331 331 330 331 332 333 336 338 339 340 341 341 342 343 344 346 345 343 344 347 345 337 333 335 335 336 336 336 336 337 336 335 333 332 332 332 333 334 335 335 335 335 336 337 337 338 339 339 340 339
328 328 328 326 325 325 325 323 323 322 323 325 326 327 328 330 332 332 332 333 333 333 334 332 331 332 331 332 333 333 336 338 338 340 340 341 342 342 343 343 343 342 342 345 346 343 337 336 336 335 334 334 334 336 337 338 337 335 333 333 333 334 335 335 335 336 337 337 338 339 339 339 339 338
327 327 326 326 326 325 323 322 321 322 322 324 325 326 327 328 329 330 331 333 332 331 332 331 331 332 331 331 333 334 334 336 338 340 340 340 340 341 341 342 342 341 342 344 346 346 344 340 338 334 333 335 336 337 338 339 339 336 335 334 334 335 336 336 336 337 337 337 337 339 339 338 337 337
326 326 325 325 326 323 321 321 321 321 322 323 324 325 326 327 328 329 329 331 333 332 332 331 331 332 332 332 334 335 334 335 338 340 340 340 340 340 340 341 342 342 343 344 345 348 347 343 340 336 335 336 338 338 339 339 339 338 335 334 335 336 337 337 337 336 335 337 338 338 338 336 336 337
325 325 325 325 325 322 321 320 319 319 319 321 322 324 325 325 326 327 329 330 332 333 333 332 332 333 334 334 334 335 336 336 337 338 338 338 339 339 340 340 342 342 343 344 345 347 347 344 340 337 336 337 338 338 339 339 338 337 335 336 337 338 337 336 335 335 336 338 338 337 335 336 338 339
326 325 325 325 324 322 321 319 317 317 318 320 321 323 324 324 324 325 326 329 331 333 334 333 332 333 336 336 336 336 337 337 338 338 338 338 338 338 339 339 340 342 343 344 345 345 346 344 340 337 336 336 337 337 339 339 338 337 337 338 338 338 337 336 335 336 338 338 336 335 336 338 340 340
328 325 325 325 324 322 322 319 316 316 318 319 321 323 324 324 324 323 324 326 329 332 333 333 332 332 334 337 338 338 337 338 339 340 341 341 340 339 339 338 339 342 343 344 344 344 344 343 341 338 337 337 337 338 339 340 339 339 338 339 338 337 337 336 337 338 337 336 335 337 339 339 340 340
329 328 326 326 325 324 322 320 317 317 319 320 321 323 324 324 324 324 323 324 326 329 332 333 333 332 332 335 337 338 338 338 339 341 342 341 341 340 339 338 340 343 344 343 343 344 345 344 342 339 337 338 338 338 339 340 340 340 339 339 338 337 337 337 338 337 336 336 337 338 339 338 338 339
330 330 327 326 326 325 323 320 318 317 319 321 321 323 323 323 323 324 324 324 325 326 330 333 334 334 334 335 336 337 337 338 339 341 343 342 342 342 339 338 341 343 344 343 343 345 348 347 344 341 339 338 338 338 339 340 340 340 339 339 338 338 338 339 337 336 336 337 337 337 336 337 338 339
330 330 329 327 326 325 324 321 319 318 318 319 321 322 322 321 321 322 322 323 324 326 328 332 334 336 336 336 337 336 336 337 338 340 342 342 342 342 339 338 340 341 341 342 344 346 348 346 344 342 340 338 338 338 340 340 341 341 341 341 340 339 338 337 336 336 337 336 336 337 337 337 338 338
330 329 329 328 327 326 325 322 320 319 318 318 319 320 321 320 320 320 320 322 323 325 326 329 331 333 335 336 337 337 336 337 339 339 340 341 342 342 340 338 339 339 339 340 342 344 345 346 345 343 341 340 339 339 341 342 343 343 342 342 340 338 337 336 337 337 337 337 337 336 337 337 337 338
328 327 328 328 327 326 325 323 322 320 317 318 319 320 321 320 319 319 320 320 322 323 324 326 329 331 332 334 336 337 338 338 339 339 339 340 341 342 342 339 338 339 338 339 341 340 341 344 345 344 341 340 340 341 343 343 343 342 341 340 338 337 337 336 337 338 337 337 337 336 336 336 337 337
326 327 327 327 326 326 326 324 322 319 318 319 321 321 320 319 319 319 320 319 320 322 323 324 326 328 330 331 334 336 338 338 339 340 341 341 341 342 344 343 340 340 340 340 340 340 339 341 343 342 341 340 341 342 342 341 341 340 339 338 338 338 337 337 339 339 338 338 336 336 335 335 335 336
325 326 326 326 326 327 327 326 322 319 319 321 322 321 320 319 319 319 320 320 320 322 323 324 325 326 328 330 332 334 336 338 339 341 342 342 342 343 345 345 344 342 342 341 340 340 341 342 343 342 340 340 341 342 342 341 340 339 338 339 339 338 338 338 339 339 338 337 337 336 335 335 335 335
321 324 327 329 328 326 326 327 324 321 321 321 320 320 319 319 319 319 320 321 321 322 322 323 325 326 327 328 330 332 335 338 340 341 341 342 342 341 342 345 345 343 342 341 340 341 342 344 343 341 340 340 339 340 342 341 340 338 338 340 340 338 337 338 338 338 337 336 335 335 335 335 335 335
321 324 327 328 326 325 326 326 324 322 322 321 319 319 319 319 319 319 320 321 322 322 322 323 324 324 326 327 328 331 334 337 339 340 341 340 341 341 341 343 344 342 341 341 342 344 344 343 343 341 340 339 338 339 342 342 340 337 338 339 339 338 337 337 337 337 336 336 336 336 336 336 335 335
322 323 325 326 324 325 325 324 322 322 321 320 320 320 319 318 318 319 320 322 322 322 322 322 322 323 324 325 327 329 332 334 336 339 340 339 340 340 342 342 342 342 341 341 343 346 346 344 344 342 340 339 339 339 340 342 341 338 337 337 338 337 335 335 336 336 336 336 337 336 336 336 335 336
321 322 323 324 324 322 320 321 322 321 320 320 321 321 319 318 318 318 319 320 321 322 322 321 321 322 322 324 325 327 330 332 334 336 338 339 340 340 340 340 340 341 342 343 343 346 347 347 345 343 342 341 341 338 339 340 340 339 337 336 335 335 335 336 336 336 336 336 336 336 337 336 336 336
320 321 322 323 324 321 318 320 322 321 321 322 322 320 318 318 318 317 317 318 320 321 321 321 322 322 322 323 325 327 330 332 333 335 337 338 339 340 340 340 340 340 341 342 340 341 345 347 347 345 344 344 342 338 339 340 337 337 338 339 337 336 336 337 337 336 335 335 336 336 336 336 336 337
319 321 322 324 325 322 320 320 320 320 322 323 321 319 318 317 317 316 316 318 320 321 321 321 323 325 325 325 327 328 330 332 333 335 336 337 339 340 339 339 339 337 338 338 337 338 339 341 342 344 346 346 343 338 338 341 340 339 339 340 339 338 337 337 336 335 335 335 335 336 337 337 337 338
319 321 323 324 325 323 320 319 319 320 322 322 320 318 317 317 317 316 316 318 320 321 321 323 326 329 329 328 328 329 331 332 333 334 336 337 338 339 338 338 338 337 336 335 335 337 340 338 337 341 345 346 342 341 342 344 346 345 342 341 339 338 337 337 336 334 334 334 336 337 337 337 338 339
320 323 323 323 324 323 321 319 319 321 322 321 319 318 317 317 316 315 316 318 320 321 321 322 326 331 332 331 330 329 330 332 334 334 336 337 338 339 338 337 337 336 334 333 332 336 340 339 337 339 345 346 345 346 347 347 348 347 344 342 339 337 338 337 336 335 334 334 337 337 337 338 339 340
322 323 323 323 323 322 320 319 320 322 322 322 319 318 318 317 315 315 315 317 320 321 321 321 324 328 331 332 331 330 330 332 333 334 336 337 339 339 338 336 335 335 334 334 336 338 341 341 338 336 340 344 346 347 348 348 349 349 348 345 341 340 339 337 336 334 334 335 338 338 338 339 339 341
323 324 323 323 323 321 318 319 322 322 322 322 320 318 319 318 315 314 315 317 319 320 321 321 322 325 329 331 332 333 333 333 334 335 336 337 338 338 338 337 338 338 338 338 340 341 342 342 340 335 336 340 344 346 346 347 347 349 349 347 344 342 340 336 334 333 334 337 338 338 339 338 339 342
323 323 323 324 323 320 319 321 323 322 322 323 321 319 320 319 315 314 315 316 318 319 320 321 321 323 327 331 333 334 334 334 334 335 336 337 337 337 336 337 337 338 338 338 338 340 341 342 340 338 338 341 344 345 345 346 347 348 349 348 347 344 340 336 335 335 337 338 339 339 338 339 340 342
322 323 323 324 322 320 321 324 324 323 323 324 322 320 321 320 315 313 315 315 316 318 320 321 321 321 323 327 330 332 334 335 335 335 336 336 335 334 334 334 335 336 337 337 337 339 341 341 340 340 341 344 345 344 344 345 347 348 348 348 348 345 340 338 338 338 339 340 340 339 338 339 341 343
322 323 324 323 321 321 322 324 324 324 324 324 323 321 322 321 316 313 314 315 315 316 318 320 321 321 321 323 325 328 333 336 337 337 337 336 334 333 332 333 334 335 337 337 338 338 339 341 341 341 342 344 345 344 344 345 346 348 349 348 347 345 342 340 340 340 340 340 340 338 337 339 341 343
324 324 323 321 321 322 323 323 324 324 323 323 323 323 322 320 317 314 314 314 314 315 316 317 318 320 320 321 322 324 330 335 338 338 338 337 337 336 335 335 334 334 335 336 338 338 338 340 342 342 342 343 344 345 346 346 346 348 350 349 347 344 343 341 341 340 340 340 339 338 337 338 340 342
324 323 322 322 323 323 323 322 323 323 322 322 323 323 323 321 318 315 314 314 314 314 315 315 316 318 319 320 321 322 326 331 336 338 338 338 338 338 337 337 337 336 336 335 335 336 337 338 341 341 342 341 341 343 346 347 347 347 348 348 346 344 343 342 341 341 340 340 340 339 338 339 340 341
323 322 322 323 323 322 321 321 321 322 322 322 322 323 323 322 319 316 315 314 313 314 315 315 315 316 317 319 320 320 322 326 331 336 338 338 338 338 338 338 338 338 337 335 335 335 336 338 339 339 339 339 339 340 344 347 347 347 347 348 347 345 343 341 341 341 341 340 340 340 340 340 340 340
322 322 322 323 322 321 320 321 321 321 322 321 322 323 323 322 321 319 317 315 314 314 315 315 315 315 315 317 318 319 320 321 325 331 336 337 337 338 339 338 338 338 338 337 336 336 337 337 338 338 338 337 336 338 342 346 347 346 347 348 346 344 342 340 340 341 341 340 340 340 340 340 339 339
322 322 322 322 321 320 320 321 321 321 322 321 322 323 322 322 322 321 320 318 316 314 315 315 316 316 315 315 316 318 320 320 321 325 330 334 335 337 338 339 339 338 338 337 336 337 338 338 338 338 337 336 335 335 339 343 345 345 346 346 346 344 343 340 339 340 340 339 339 339 339 338 338 339
321 320 320 320 320 319 320 320 320 321 321 321 322 322 321 321 322 322 322 321 320 318 317 316 315 316 317 316 316 316 318 320 321 321 324 328 330 332 334 335 336 337 338 338 338 338 339 340 340 338 337 336 335 336 337 340 343 344 345 346 345 345 343 340 339 339 339 338 338 338 337 337 338 338
319 319 318 319 319 319 319 319 319 319 320 320 320 321 321 321 322 322 322 323 321 320 320 319 318 317 317 316 316 316 316 319 321 321 321 322 325 326 328 329 331 333 335 336 338 339 339 340 340 339 337 336 336 337 338 338 340 343 346 346 345 344 342 340 339 338 338 338 338 337 337 337 337 338
318 318 317 317 318 318 318 318 318 318 319 319 319 320 320 320 321 321 322 322 321 320 320 321 322 320 317 315 316 316 316 317 319 321 321 321 321 322 323 324 325 328 330 331 333 335 338 339 339 338 337 337 338 338 340 339 339 341 344 346 345 343 341 340 339 339 338 338 336 335 336 337 336 336
317 317 317 317 317 317 317 318 318 318 319 318 319 319 319 319 320 320 320 321 321 320 319 321 322 323 320 316 315 316 316 316 317 320 321 321 321 320 320 320 320 322 325 327 328 330 334 337 339 338 337 338 338 339 339 340 341 342 343 345 345 343 341 339 339 338 337 336 335 335 335 336 335 335
316 316 316 317 317 317 317 317 318 318 318 318 318 318 318 318 319 319 319 320 320 320 321 321 321 323 322 320 318 319 318 317 316 317 318 321 322 322 321 320 319 318 320 322 324 327 330 333 335 336 336 337 337 335 335 338 339 340 341 342 343 342 341 340 338 337 337 336 336 336 337 336 336 336
315 315 315 316 316 316 316 316 316 316 316 316 316 317 317 317 317 318 318 319 319 320 320 321 321 321 322 322 322 322 321 321 320 317 317 319 320 321 321 321 320 319 318 318 320 323 325 328 330 331 332 333 332 331 333 334 334 335 338 341 341 340 341 340 338 336 335 336 337 338 338 338 337 337
313 313 313 313 312 313 313 313 313 313 313 313 313 313 314 315 315 315 316 316 316 317 319 319 320 320 321 321 322 322 322 323 322 321 320 320 320 320 320 321 321 321 320 318 317 318 320 323 325 326 327 327 327 329 331 333 333 333 335 337 337 339 340 339 338 336 335 336 337 337 337 338 337 337
312 311 310 309 309 310 310 310 310 310 310 310 310 310 310 311 312 312 312 313 313 314 315 316 318 319 319 319 320 321 321 322 322 322 322 322 322 321 320 319 320 322 322 320 318 317 318 319 320 323 324 325 326 327 329 330 330 330 329 329 332 335 337 337 338 337 337 337 336 336 336 337 337 337
311 310 308 308 307 307 307 307 307 308 308 308 308 308 308 309 309 309 309 309 310 311 311 312 314 316 316 316 317 319 320 321 321 322 322 323 323 322 321 321 321 321 322 321 319 318 318 318 318 319 321 323 325 326 327 326 325 325 325 325 326 329 331 333 335 336 337 337 336 336 335 336 336 336
309 308 306 306 306 305 305 305 305 305 306 306 306 306 306 307 307 307 308 308 308 308 308 309 310 312 313 313 313 315 317 318 320 321 321 322 322 322 323 323 323 322 322 322 321 319 318 318 318 317 318 320 321 322 322 322 322 323 323 322 321 322 324 327 330 332 334 333 334 335 335 335 334 335
307 305 304 304 304 304 305 304 303 303 304 304 304 304 304 304 304 305 305 305 305 305 306 306 307 308 309 309 310 311 313 314 316 318 320 320 321 322 322 323 324 323 323 323 322 321 319 318 318 318 318 318 318 319 319 319 319 320 320 321 320 319 320 321 324 326 328 328 328 330 333 333 332 332
305 304 304 304 303 303 303 303 302 302 303 302 302 302 302 301 302 302 302 302 303 303 303 304 304 304 305 306 306 307 309 309 311 313 316 317 319 320 321 322 323 324 324 323 323 323 322 321 319 318 317 317 317 317 317 317 317 317 318 319 319 319 318 319 320 322 323 324 324 324 327 328 329 329
Wind_Speed
18 18 17 16 19 22 25 27 26 26 27 28 28 29 29 29 31 35 36 36 36 36 35 35 38 38 35 33 32 32 36 38 41 44 44 44 44 39 36 37 38 39 40 38 35 33 34 34 34 34 34 34 34 34 35 36 36 36 35 34 34 33 33 32 31 30 30 29 28 28 27 27 26 26
17 16 16 17 21 23 24 24 24 25 27 28 28 29 29 28 30 32 35 39 38 34 34 35 38 39 37 34 32 33 33 32 32 37 41 43 46 44 39 35 34 36 38 39 36 34 34 33 33 32 32 32 33 33 34 35 37 37 36 35 34 33 33 32 32 31 30 30 29 29 28 28 28 27
16 16 17 19 21 21 22 24 26 27 28 28 28 30 30 29 29 30 31 38 41 35 33 36 39 40 39 36 33 32 30 27 27 31 35 38 40 40 37 34 33 33 33 35 34 34 35 34 34 33 33 32 33 33 34 35 36 37 37 36 35 34 33 33 32 32 31 30 30 29 29 28 28 27
17 17 19 19 19 20 23 26 28 28 28 29 29 30 31 31 31 30 30 35 41 39 37 39 40 39 39 37 33 32 30 28 28 29 32 34 33 34 34 33 33 33 33 34 34 34 35 35 35 35 33 33 33 33 35 36 37 38 37 37 36 34 34 33 32 32 31 30 30 29 28 28 27 27
17 18 19 18 18 20 24 27 30 30 30 30 31 31 32 33 32 31 31 34 39 40 37 38 38 36 34 34 32 31 31 30 29 31 33 32 31 32 34 33 34 35 35 37 36 34 34 35 35 35 33 32 32 33 35 36 37 38 38 37 36 35 33 32 32 31 31 30 29 28 28 27 27 27
18 19 19 18 18 20 24 27 30 32 31 30 32 33 32 32 32 31 30 32 35 38 37 36 36 33 30 32 33 30 31 31 32 33 35 34 33 32 32 32 34 33 34 37 38 36 34 34 35 35 34 33 33 33 34 35 36 37 37 37 36 34 33 32 32 31 31 29 29 28 27 27 26 26
20 20 19 16 17 19 22 25 29 31 33 32 32 31 30 30 32 31 30 30 32 35 36 35 34 32 29 31 32 30 30 31 32 34 35 35 34 34 34 33 32 32 32 36 39 36 34 34 36 35 34 33 33 33 33 33 34 35 36 36 35 34 34 33 32 31 30 29 28 28 27 26 26 25
22 21 20 17 17 19 21 24 28 31 32 33 32 29 28 30 31 32 31 30 31 33 34 34 34 33 30 30 30 30 29 30 31 33 33 33 32 32 34 35 32 31 31 34 35 34 32 34 36 36 35 33 32 33 33 32 32 33 34 35 35 35 34 33 31 30 29 28 28 27 26 26 26 25
24 22 21 19 18 19 20 23 28 30 30 31 32 28 26 29 32 33 33 31 30 32 33 33 34 35 32 30 31 31 30 31 33 33 31 31 31 31 32 33 32 29 29 30 31 30 31 33 35 35 34 32 31 32 32 32 33 33 35 36 36 35 33 31 30 29 28 28 27 27 27 26 26 25
23 23 23 22 20 19 19 22 25 28 29 29 30 28 28 31 33 34 34 32 30 31 31 30 30 32 32 32 34 34 32 31 32 32 31 31 31 30 31 32 33 30 28 28 29 30 31 32 33 34 33 31 31 31 32 33 34 35 35 35 34 33 31 30 29 28 27 27 27 26 26 26 26 25
23 24 25 25 22 19 18 21 24 26 29 29 28 29 33 36 37 38 37 34 30 30 30 29 27 28 30 31 33 34 33 32 31 31 32 34 32 30 30 32 35 36 33 30 30 31 32 32 33 33 33 31 31 31 32 33 34 34 33 33 32 31 30 29 28 27 26 25 25 25 25 25 26 26
23 25 26 26 23 21 20 21 24 26 28 29 29 31 36 40 41 41 41 38 33 31 30 29 28 28 28 28 30 31 31 31 32 31 32 33 32 31 32 33 35 37 36 33 33 33 32 33 33 33 32 31 31 31 32 32 33 33 32 32 31 30 29 28 27 25 23 22 22 22 22 24 25 26
26 26 27 27 25 24 23 22 24 25 27 28 29 33 37 41 43 43 42 42 38 33 32 30 29 30 31 30 29 30 31 31 31 30 31 33 34 34 36 34 33 33 34 34 35 34 34 35 35 35 33 32 31 32 33 32 33 33 33 32 31 30 29 27 25 22 21 20 20 20 20 22 23 25
28 29 29 29 29 28 24 21 24 26 26 27 28 32 36 39 42 43 43 43 39 35 33 32 29 29 32 33 30 29 29 29 30 30 31 34 34 34 37 36 34 33 33 34 36 36 36 37 38 38 35 33 33 34 34 33 33 33 32 32 31 30 28 26 23 21 19 18 18 18 19 21 22 24
28 30 31 31 30 27 23 19 22 27 25 24 27 31 35 38 41 44 44 42 39 35 33 32 30 29 31 33 31 30 29 28 29 31 32 33 33 34 36 36 35 35 34 35 36 37 37 37 38 39 37 35 34 34 34 33 32 32 32 32 31 30 29 26 23 20 19 18 18 19 20 21 22 23
26 28 31 33 29 25 24 23 22 25 24 25 28 32 34 38 41 43 42 38 36 35 34 33 32 31 32 33 32 31 29 26 27 30 31 30 32 35 36 36 36 34 32 34 36 38 37 36 36 38 38 36 35 35 34 33 32 31 32 31 31 30 29 26 24 23 22 21 21 21 22 23 23 23
27 26 29 32 27 23 26 27 24 23 24 27 31 32 34 38 41 42 40 36 35 35 35 35 35 34 32 33 33 31 29 26 26 29 29 28 31 34 36 37 36 31 30 33 37 38 38 37 37 38 39 38 36 34 34 33 32 31 31 31 30 30 29 27 26 25 24 24 24 23 24 24 24 24
27 26 27 27 23 21 23 24 23 23 25 29 32 32 35 38 41 43 43 42 39 36 35 37 38 37 34 34 34 32 31 31 29 27 26 27 31 34 33 33 31 28 27 30 35 39 39 37 37 38 39 38 37 35 34 33 33 31 31 32 31 30 29 27 26 25 24 25 25 25 25 26 25 24
24 25 24 22 21 21 21 20 20 23 26 30 31 31 34 39 42 45 46 45 41 37 36 38 40 40 38 37 37 35 32 32 32 30 27 27 30 32 31 30 29 28 24 23 29 36 37 35 36 38 38 38 38 36 34 33 33 32 32 32 32 30 29 26 25 25 25 25 26 26 26 26 25 24
22 22 23 23 20 19 18 17 19 23 27 29 29 29 34 39 44 48 48 46 43 40 40 41 39 39 39 39 40 39 34 32 32 31 30 30 29 27 26 28 30 29 24 20 23 28 28 27 30 34 36 38 40 39 36 34 33 33 32 32 31 31 29 27 25 25 25 26 26 27 27 26 25 24
19 20 23 23 19 17 18 18 20 23 26 27 25 27 34 40 45 50 49 47 45 44 44 43 38 35 38 40 40 39 37 35 33 30 30 31 29 25 25 27 30 31 29 24 22 23 24 24 26 28 30 35 39 39 38 36 33 32 33 32 31 30 29 27 26 26 26 26 26 27 27 26 25 24
18 19 20 19 16 17 20 21 22 25 25 23 22 27 34 40 45 49 48 49 50 49 49 45 34 28 33 36 37 39 39 37 37 34 31 28 26 27 29 29 29 30 31 29 25 24 26 26 27 27 26 30 37 39 38 37 34 33 33 33 33 33 30 28 27 27 26 25 26 27 27 25 25 24
19 19 19 18 17 19 21 22 24 24 22 20 21 28 35 39 43 46 47 51 52 51 52 49 36 24 23 27 32 37 37 38 40 39 33 27 25 28 31 30 29 29 31 30 28 27 27 26 27 28 25 27 34 37 37 37 36 36 35 36 35 34 32 29 28 27 26 25 26 26 25 25 25 24
21 20 19 19 19 20 22 24 24 22 20 19 22 28 33 36 41 44 47 50 52 50 51 50 41 28 18 18 24 30 33 36 41 42 38 32 27 27 28 29 29 29 29 27 26 26 27 26 27 30 30 27 26 28 30 33 36 37 37 36 34 33 31 29 28 27 26 25 25 25 25 25 24 24
20 20 21 20 19 21 23 24 23 20 19 19 21 26 30 33 38 43 45 49 51 50 50 50 45 34 21 12 14 22 28 33 39 42 41 37 31 28 29 30 29 29 28 26 24 23 24 25 26 29 31 29 26 24 24 27 32 36 37 36 33 30 29 28 27 26 25 24 24 24 24 25 24 23
20 21 21 20 20 22 23 23 22 20 19 19 20 23 26 29 36 40 42 46 50 51 51 52 50 43 28 14 6 10 18 28 37 42 42 40 37 33 32 33 32 30 28 27 24 22 21 23 26 27 28 28 28 27 26 26 28 32 36 36 33 30 28 27 26 25 24 23 23 23 23 24 24 23
20 19 19 20 21 21 20 20 20 19 19 18 18 20 23 27 34 39 40 43 48 51 53 53 53 50 40 27 16 8 8 19 31 39 40 41 41 39 37 36 34 31 28 26 26 25 22 21 23 26 27 27 25 23 24 25 25 30 35 36 33 30 28 26 25 24 23 23 22 23 24 24 24 23
16 16 18 20 19 18 18 18 18 18 19 18 16 18 20 24 32 39 40 42 46 50 53 54 53 52 48 40 31 18 7 15 24 31 35 36 38 40 41 39 36 33 30 29 29 29 26 22 21 23 27 27 22 18 20 23 25 29 34 35 33 31 28 26 26 24 23 23 23 23 25 25 25 24
13 15 18 18 17 16 17 16 16 17 20 19 16 15 17 21 29 36 39 41 45 48 51 52 53 52 50 45 41 30 11 15 23 26 29 30 31 33 36 38 38 36 35 35 33 31 29 26 22 20 21 22 20 16 16 19 22 26 31 33 32 31 27 25 25 25 24 24 24 24 25 26 25 25
14 16 17 16 15 16 17 17 17 18 18 18 16 14 15 18 23 30 35 38 42 45 48 50 51 52 51 46 43 39 23 5 18 24 29 30 29 31 32 33 34 35 35 36 36 33 31 28 22 18 17 17 17 16 14 13 15 20 28 33 31 27 24 23 23 23 23 22 22 22 23 25 25 26
15 16 15 13 13 16 18 19 19 17 15 16 15 14 16 16 17 23 29 32 36 40 44 46 47 48 49 47 44 44 39 23 2 16 28 29 26 28 32 33 33 32 32 33 35 35 34 30 25 22 20 18 18 17 16 15 16 19 27 33 29 22 21 21 22 22 20 19 19 20 22 24 26 26
13 12 11 11 14 18 19 19 17 15 13 14 14 15 17 17 15 17 21 25 31 36 38 40 43 45 48 49 46 44 43 39 27 6 18 25 21 20 24 28 29 28 28 30 31 31 32 31 28 26 23 21 21 20 17 17 18 19 24 29 27 21 20 20 21 22 21 20 19 18 20 24 26 26
12 10 8 12 17 18 17 16 15 13 12 13 14 15 16 18 18 16 16 19 25 30 33 37 39 41 44 47 47 45 42 41 39 29 11 7 12 13 17 20 22 22 24 27 29 28 28 28 28 28 26 24 24 23 21 18 17 18 23 27 26 24 22 20 20 22 21 21 21 18 18 21 24 24
10 9 9 13 15 15 13 13 13 14 13 14 15 15 16 18 20 19 18 18 19 21 26 31 35 36 38 42 45 45 43 39 38 38 33 23 13 7 5 8 12 16 18 21 25 26 23 21 21 24 25 24 25 25 23 19 16 17 24 29 27 25 24 20 20 22 21 20 20 17 16 18 20 20
8 9 10 11 12 11 11 12 13 14 14 15 16 16 17 18 20 21 21 20 18 17 19 23 27 31 34 37 39 40 41 40 37 38 38 36 32 28 25 18 9 5 9 14 20 23 22 18 17 18 20 21 22 22 22 22 19 18 24 29 28 26 25 21 20 21 21 18 17 17 16 17 17 17
7 8 9 10 11 10 10 11 12 14 15 16 17 18 18 19 20 21 22 21 20 20 20 20 21 24 27 31 33 34 37 38 36 35 36 37 37 35 34 32 28 21 14 8 7 15 21 21 17 16 17 18 19 18 18 20 21 20 24 29 31 29 26 22 20 20 20 18 17 17 18 17 15 14
7 8 8 9 10 9 10 11 13 14 15 16 17 18 19 19 19 20 21 22 22 23 22 21 20 20 22 24 26 28 31 35 35 33 33 33 34 35 34 34 34 33 29 25 19 9 11 19 19 17 16 16 18 18 16 17 19 21 24 29 31 29 26 22 20 20 19 18 17 17 17 15 13 13
6 7 7 7 8 8 9 10 11 12 13 13 14 15 16 16 16 17 19 20 21 23 23 23 22 21 20 21 22 23 24 28 30 31 31 30 30 30 30 31 32 33 33 30 28 25 16 10 13 15 15 15 15 14 13 14 15 18 23 26 26 26 26 23 21 21 21 20 19 19 18 16 14 15
6 6 6 6 7 7 8 8 9 9 10 11 12 12 12 13 14 15 16 17 18 19 20 21 21 22 21 21 21 21 20 21 23 25 26 27 27 26 25 25 26 30 33 32 30 29 27 23 17 12 13 16 15 12 12 13 11 10 17 23 23 24 26 23 21 21 23 23 23 21 20 18 17 16
5 5 5 6 6 6 7 8 8 9 10 12 12 12 12 13 14 15 16 17 19 19 18 18 19 20 21 21 21 20 20 19 19 19 18 19 21 22 22 23 23 24 28 32 32 30 28 26 23 19 17 18 19 19 19 20 17 13 13 14 16 21 25 24 22 23 23 24 25 24 22 21 19 17
4 6 6 7 8 8 8 9 9 10 11 12 12 12 13 14 14 15 16 17 18 19 19 19 18 18 20 22 21 20 19 18 17 16 15 14 15 16 18 20 22 22 23 26 28 29 28 24 20 18 17 17 17 19 22 23 21 19 18 16 11 12 18 20 23 27 26 23 24 25 23 21 19 17
3 5 7 8 9 10 10 10 10 11 11 11 11 12 13 13 13 14 15 16 17 18 19 19 19 18 19 21 21 20 20 19 17 16 15 14 13 13 13 15 17 19 20 20 21 22 22 22 20 17 14 11 11 16 23 26 25 24 24 24 21 15 10 9 13 22 25 22 22 23 23 21 19 17
4 5 6 6 6 8 9 10 11 12 12 12 12 12 12 13 13 14 14 15 15 16 17 18 18 17 17 19 19 19 19 19 18 16 15 14 14 13 12 12 13 13 13 14 16 16 16 18 19 18 16 14 13 15 19 21 20 20 21 22 23 23 20 17 14 12 14 14 17 22 23 21 20 18
4 4 4 4 6 8 9 10 11 12 12 13 13 13 13 13 13 13 14 13 13 13 14 15 16 16 16 16 17 17 18 19 19 17 16 15 14 14 12 11 11 10 9 9 11 11 12 13 15 17 18 19 17 15 15 15 13 14 15 14 16 18 20 21 20 17 14 14 14 16 18 19 18 17
2 3 5 6 7 9 10 11 11 12 12 12 12 12 12 12 12 12 13 12 12 12 11 12 14 16 16 16 16 16 16 17 18 18 17 16 15 14 13 12 11 10 9 8 9 9 8 8 10 11 14 15 15 16 17 17 16 14 12 9 9 11 14 16 17 18 17 17 18 17 15 16 16 16
Wind_Direction
331 326 327 324 325 331 332 333 332 329 326 323 320 315 312 306 296 292 289 284 279 278 277 277 278 279 276 276 278 274 269 264 255 253 255 257 258 258 257 258 258 252 245 241 241 239 237 239 240 240 241 242 244 245 246 245 245 244 243 244 246 248 250 251 252 253 253 254 254 254 255 256 258 260
325 321 322 322 325 331 335 338 337 333 327 320 313 308 307 307 300 293 289 285 283 282 280 277 277 279 279 278 278 276 272 267 260 256 256 257 256 255 255 259 263 263 254 244 240 238 238 239 239 238 239 241 243 245 246 245 244 243 242 242 243 245 247 249 251 251 251 252 253 254 255 257 259 260
324 321 320 323 329 332 335 339 339 338 335 326 316 307 302 301 301 300 294 285 282 281 280 281 281 281 280 279 278 275 270 264 260 257 254 253 253 252 253 258 262 263 259 251 243 240 240 242 241 240 239 241 243 244 245 245 244 243 242 241 241 242 245 247 248 249 250 251 252 253 255 256 257 258
321 320 320 323 330 333 336 341 342 342 343 339 331 320 309 302 298 299 300 292 287 285 281 281 285 286 282 278 277 274 269 263 259 258 254 250 251 251 252 254 258 259 259 255 249 244 243 242 241 241 240 240 242 243 244 244 243 242 240 239 240 241 243 245 245 247 249 250 251 252 253 254 255 256
318 317 318 322 328 333 338 345 349 347 344 341 338 333 325 316 306 298 297 298 297 295 290 282 284 290 285 276 275 275 272 264 256 257 258 254 252 252 250 250 254 257 257 254 250 246 243 241 240 240 239 239 241 243 243 243 243 241 238 238 239 241 241 241 243 246 248 250 250 250 251 253 254 255
315 314 315 319 324 332 341 349 354 351 346 342 337 333 329 325 319 308 297 295 298 300 298 287 282 288 284 273 273 275 274 267 257 255 258 256 252 250 249 250 252 255 255 252 248 243 240 240 239 238 239 240 241 242 243 242 241 239 237 237 238 238 238 239 242 246 247 248 249 250 252 252 252 254
308 312 313 316 322 331 342 350 353 353 351 347 340 333 329 328 326 321 309 297 294 299 301 292 282 282 279 270 271 275 275 271 262 257 257 256 253 252 251 250 251 253 253 248 243 239 237 237 237 236 238 240 241 241 241 240 239 237 236 237 237 236 237 241 243 244 244 246 249 250 251 250 252 254
303 310 311 311 317 326 336 344 348 351 353 351 344 335 330 330 329 327 320 306 292 292 298 294 283 279 278 269 267 272 273 270 264 259 257 256 255 253 251 248 248 250 247 241 238 236 235 235 234 235 237 239 239 239 239 238 237 236 236 236 237 238 240 241 240 240 242 245 247 247 248 249 252 254
298 304 308 307 311 319 329 337 343 349 354 354 349 339 333 334 332 326 322 314 300 290 291 293 286 280 279 271 264 266 270 267 263 257 255 256 257 255 250 244 242 243 240 236 234 231 231 233 233 233 234 236 237 236 237 238 238 237 238 238 239 240 239 237 236 238 241 242 243 244 246 248 251 253
292 295 300 304 306 311 322 331 338 347 353 355 353 348 343 343 338 331 325 319 311 299 289 289 290 284 279 271 263 262 264 264 262 257 256 258 256 250 245 238 233 234 235 235 231 225 225 229 231 230 231 233 234 235 236 238 239 239 239 239 238 235 232 232 233 236 237 239 241 243 245 248 250 252
290 290 292 297 300 299 309 322 328 338 347 350 350 349 348 347 344 340 336 328 319 311 298 290 292 291 282 272 265 262 263 262 260 257 256 256 251 243 241 238 233 233 236 236 231 225 226 230 231 230 229 230 233 234 236 237 238 238 236 233 231 229 229 230 231 232 234 237 240 243 246 249 251 252
290 290 287 286 288 287 295 310 319 329 338 342 344 344 344 346 344 341 339 335 326 319 311 297 291 292 288 278 269 263 260 258 255 253 252 251 248 241 238 239 237 237 239 237 232 228 229 231 231 230 229 231 234 235 236 236 236 234 231 228 227 226 226 226 226 228 230 234 239 243 248 251 252 253
292 289 283 279 281 282 287 304 319 327 333 335 339 340 340 342 343 339 336 334 329 320 315 306 293 289 287 283 276 266 257 253 254 255 253 251 248 242 239 239 239 239 239 236 232 231 230 230 230 230 229 230 234 234 233 232 231 230 228 226 224 223 222 220 220 224 228 234 240 245 250 253 254 253
294 289 285 282 281 279 282 304 326 331 332 333 333 335 338 340 341 337 333 331 329 321 314 308 300 292 286 281 277 271 263 257 254 252 250 248 246 240 237 237 238 239 238 234 233 232 231 231 232 231 228 228 230 230 228 227 227 226 225 223 221 218 216 215 218 223 229 236 243 249 255 257 257 255
294 291 290 286 280 276 276 297 328 334 332 331 330 331 336 340 341 338 331 327 326 322 314 307 301 294 287 280 274 271 270 264 254 247 244 243 242 239 237 235 233 234 235 234 234 233 231 232 234 231 227 225 226 226 226 225 225 224 223 221 219 216 213 215 220 226 232 240 248 256 261 263 261 258
307 300 296 291 286 286 286 291 316 331 329 328 329 329 334 339 342 341 334 325 321 319 314 307 301 294 289 284 275 267 266 266 258 251 244 241 244 244 240 235 233 232 230 229 232 234 231 229 230 228 226 225 226 228 228 226 224 224 224 222 220 217 217 222 229 233 239 246 254 261 264 265 263 259
325 315 304 301 300 302 303 304 314 322 320 324 328 329 334 340 343 343 339 332 323 316 311 305 299 293 288 283 276 265 258 259 261 258 252 247 247 246 239 232 233 233 227 224 228 231 230 228 227 226 226 226 228 229 230 228 225 225 225 224 221 221 225 230 235 239 245 252 259 264 265 264 262 258
326 320 312 313 314 312 312 316 321 321 319 322 326 329 337 343 345 343 342 338 330 319 310 303 297 292 285 277 272 264 255 252 253 254 255 252 249 246 239 231 228 226 223 223 224 225 227 227 227 227 227 227 228 230 230 229 227 225 225 225 224 225 230 234 238 243 250 257 262 264 263 262 260 255
321 318 319 323 323 321 319 319 322 324 324 324 326 332 340 345 346 343 341 339 333 324 316 308 299 290 281 271 264 258 252 249 247 247 249 251 249 245 238 231 226 222 223 221 217 221 225 225 226 229 230 229 229 230 229 230 230 227 225 225 227 229 233 236 241 247 253 258 262 263 262 260 257 253
319 318 323 325 325 328 328 324 324 325 325 326 330 338 344 347 346 342 339 336 334 331 327 320 308 291 276 264 257 251 244 239 239 242 245 247 247 241 230 224 221 220 225 221 212 218 227 226 227 232 232 229 229 230 230 231 233 231 228 228 229 231 233 236 241 247 253 257 260 260 260 257 254 251
326 328 325 321 323 331 330 327 328 327 328 332 338 345 349 350 347 341 338 337 339 341 339 333 320 295 271 259 252 247 239 230 226 233 240 239 239 234 223 220 219 219 225 227 223 231 240 236 232 235 233 228 227 228 230 232 234 234 232 232 233 233 233 235 240 246 251 256 258 257 256 254 250 248
332 335 331 326 327 328 324 324 329 329 330 337 346 352 355 354 347 340 340 343 345 347 347 342 331 301 273 258 247 242 238 227 219 223 228 228 228 228 222 218 219 221 224 225 225 237 245 240 233 235 234 226 223 225 228 230 231 230 228 230 234 236 235 236 240 246 250 254 255 254 253 250 247 244
324 325 329 329 324 318 319 326 329 328 332 342 354 0 1 357 348 343 347 350 349 348 350 350 345 327 294 269 248 237 235 227 218 215 217 217 219 223 222 219 219 224 228 226 226 234 240 235 228 229 229 224 222 224 226 227 227 225 226 229 231 231 231 232 237 243 248 250 252 251 248 246 243 240
317 316 319 323 320 316 320 326 326 326 333 344 355 3 4 359 351 349 354 357 353 351 354 357 356 353 334 294 259 240 232 226 217 212 210 210 211 215 218 217 217 223 228 228 227 232 236 233 230 229 228 229 230 227 225 225 224 222 225 228 227 223 223 228 233 239 244 247 247 246 244 241 240 236
310 306 310 317 321 320 321 323 323 326 334 343 354 3 4 359 355 355 360 2 358 356 0 4 4 4 0 330 277 251 239 226 215 209 208 209 209 212 215 216 216 220 225 224 223 230 235 235 234 230 229 234 239 236 230 227 225 224 223 222 220 220 222 226 232 237 242 244 243 241 240 237 235 233
303 302 308 316 322 321 321 323 325 327 333 341 353 2 3 358 357 1 5 5 2 2 6 9 10 10 9 4 328 274 251 232 218 210 207 209 213 215 217 220 220 222 225 225 225 232 239 236 230 226 226 232 236 237 237 232 225 223 220 215 214 221 227 228 231 236 238 240 240 237 235 234 232 230
306 305 309 316 321 321 322 326 328 328 331 337 348 358 359 357 359 6 10 8 6 7 11 13 14 15 14 10 2 334 259 231 223 217 213 213 218 220 221 223 224 225 230 234 236 239 245 241 228 222 225 230 229 229 233 234 227 220 216 214 215 223 228 228 229 233 235 236 235 232 229 229 227 226
307 303 307 315 319 319 321 326 328 326 326 330 339 348 352 357 4 11 15 13 10 12 15 15 14 15 18 16 8 353 287 219 216 218 220 221 224 225 226 227 227 227 232 238 240 242 249 252 238 224 226 231 231 228 226 229 227 217 209 211 218 223 226 226 226 229 232 231 230 228 227 226 224 223
305 302 310 317 318 319 323 326 324 319 322 330 333 332 341 359 12 18 20 18 15 15 19 18 14 13 16 19 17 11 339 231 216 213 216 221 226 228 230 233 234 233 232 235 237 239 245 249 242 229 228 235 242 247 235 224 223 215 206 208 216 219 221 224 227 228 230 230 230 228 227 227 225 223
298 304 318 324 322 321 325 327 322 318 325 337 340 329 331 351 13 24 26 23 20 20 22 21 18 17 17 18 22 26 24 285 229 221 217 217 222 228 230 233 235 234 233 233 235 237 241 244 240 234 237 242 251 265 260 237 232 226 213 209 211 212 215 223 228 230 230 230 229 227 226 226 226 225
299 312 328 332 325 323 325 325 325 325 333 345 349 347 345 350 13 30 30 26 25 26 26 25 23 22 21 20 21 28 33 37 43 221 220 219 222 227 228 228 228 230 230 231 233 235 238 240 239 236 239 244 251 264 267 251 246 238 218 206 204 208 214 221 227 229 230 230 227 224 222 223 225 225
316 331 342 330 319 322 323 322 325 333 346 355 359 4 8 13 22 29 29 28 29 30 30 29 26 26 26 25 23 25 30 38 46 80 211 219 225 225 221 220 222 225 227 229 230 232 235 236 235 233 235 240 244 253 260 247 237 234 220 206 202 208 216 220 222 222 224 227 226 223 220 221 223 224
335 350 346 319 317 324 326 326 335 347 357 4 9 13 19 21 19 16 21 30 34 34 35 34 30 27 28 28 27 27 29 36 43 52 79 195 231 229 215 213 217 220 226 230 230 231 232 231 231 232 236 241 243 247 249 240 230 226 216 203 198 205 212 216 218 219 222 226 227 225 221 219 220 222
342 344 332 321 326 335 337 340 353 3 4 6 12 17 22 21 15 10 13 22 28 32 36 38 36 31 28 29 31 30 31 36 44 51 59 66 65 75 138 190 211 213 212 215 219 223 223 220 224 232 236 240 244 244 241 238 237 225 208 196 195 205 212 215 218 219 221 225 225 220 212 209 213 217
343 341 341 340 344 350 351 357 9 14 12 11 14 18 22 22 18 11 8 11 19 28 31 33 37 38 35 32 32 34 33 35 42 50 55 58 60 62 65 69 80 149 185 195 206 217 217 210 213 226 229 231 238 242 239 238 239 225 206 197 198 207 213 215 216 215 213 216 217 209 201 202 209 212
343 351 358 357 359 4 9 17 24 24 21 20 20 20 21 22 21 17 12 10 16 28 35 31 30 38 41 36 33 37 38 37 39 44 49 52 55 57 59 61 62 63 70 97 170 211 216 212 211 221 227 227 230 232 230 229 229 221 208 202 201 205 208 208 206 206 205 204 203 197 194 196 201 198
356 2 3 2 8 21 27 26 25 23 18 16 16 16 17 19 20 20 18 15 13 19 30 36 34 37 44 41 36 39 42 41 39 40 42 45 48 50 52 54 55 56 58 62 69 99 189 205 206 211 219 222 221 214 201 198 205 208 205 203 201 200 201 199 193 192 193 191 189 190 191 189 184 175
15 9 7 6 7 12 15 13 10 5 0 359 4 6 6 10 16 16 16 16 13 12 18 28 32 34 40 42 39 39 42 42 41 42 40 38 39 42 45 47 47 48 51 55 59 67 85 137 176 185 188 191 196 195 180 171 182 196 202 203 202 199 197 194 188 185 187 185 182 184 187 182 170 162
25 12 5 0 355 357 4 3 359 357 357 359 5 8 6 7 11 13 12 11 10 11 15 21 25 29 33 36 37 39 39 38 41 45 43 38 36 36 35 37 40 42 45 48 51 57 65 74 86 111 142 153 154 153 148 139 136 164 188 195 199 198 196 194 190 186 187 187 185 187 188 181 169 162
40 39 37 23 13 11 13 12 11 12 13 13 13 13 14 14 13 14 15 13 10 12 18 22 23 27 31 32 33 38 40 38 39 44 42 38 39 38 32 29 31 34 39 43 45 47 53 59 62 70 88 104 108 115 125 127 122 124 145 163 181 190 191 192 195 193 189 186 186 188 189 184 174 168
45 48 47 39 33 29 25 24 23 20 19 20 19 17 16 18 17 14 15 15 12 11 15 19 21 25 32 34 33 35 39 40 38 37 36 33 36 40 37 33 29 26 31 39 42 42 45 48 51 61 79 91 94 99 105 106 101 92 85 84 107 164 179 184 189 190 188 187 186 186 187 186 181 178
14 26 27 25 24 22 21 20 19 17 15 12 12 12 11 10 9 9 10 10 8 7 9 12 15 22 31 36 35 34 36 37 35 33 31 26 26 33 39 38 32 24 24 34 42 42 42 43 43 51 73 90 87 84 86 85 80 76 74 69 67 79 103 126 156 168 173 177 181 181 180 181 180 179
356 14 20 18 7 4 6 4 2 3 3 358 355 357 357 355 354 355 358 360 359 359 1 2 6 15 26 32 34 35 36 34 31 30 28 24 20 23 32 39 39 29 22 31 41 41 38 38 38 41 51 60 64 74 83 82 75 73 75 70 62 61 63 64 76 116 143 151 158 166 171 172 170 171
10 13 13 8 354 350 352 353 351 351 349 346 343 343 343 344 345 344 345 348 350 351 353 356 1 10 18 22 25 30 35 34 30 27 27 26 22 20 25 34 41 35 23 29 42 41 34 33 34 34 39 46 51 58 65 68 68 69 71 65 54 51 54 56 60 69 81 88 102 129 152 160 159 159
1 6 7 2 349 343 344 346 346 344 342 341 342 341 340 342 344 343 343 346 348 350 353 358 4 11 17 18 16 19 27 33 31 28 29 29 24 21 23 27 32 32 27 30 42 43 35 29 30 33 40 46 48 49 52 56 60 63 66 65 57 50 49 52 57 62 69 73 77 87 108 127 135 141